Location: Radom
(51.4061°N, 21.1577°E)
Time: 17:17:44
(UTC+02:00)

ISS - Visible Passes

Search period start: 25 September 2022 00:00
Search period end: 05 October 2022 00:00
Orbit: 414 x 417 km, 51.6° (Epoch: 25 September)

Date Brightness Start Highest point End Pass type
(mag) Time Alt. Az. Time Alt. Az. Time Alt. Az.
25 Sep -3.7 18:58:26 10° W 19:01:50 87° N 19:05:12 10° E visible
25 Sep -3.7 20:35:13 10° W 20:38:20 71° WSW 20:38:20 71° WSW visible
26 Sep -3.8 19:46:33 10° W 19:49:56 88° S 19:51:30 29° E visible
26 Sep -1.0 21:23:23 10° W 21:24:22 17° W 21:24:22 17° W visible
27 Sep -3.7 18:57:54 10° W 19:01:16 85° N 19:04:38 10° E visible
27 Sep -3.0 20:34:39 10° W 20:37:32 45° SW 20:37:32 45° SW visible
28 Sep -3.6 19:45:56 10° W 19:49:17 64° SSW 19:50:42 31° SE visible
28 Sep -0.7 21:23:08 10° W 21:23:35 12° WSW 21:23:35 12° WSW visible
29 Sep -3.7 18:57:14 10° W 19:00:36 79° SSW 19:03:53 11° ESE visible
29 Sep -2.1 20:34:09 10° W 20:36:46 26° SW 20:36:46 26° SW visible
30 Sep -2.7 19:45:19 10° W 19:48:27 37° SSW 19:50:00 23° SSE visible
01 Oct -3.1 18:56:31 10° W 18:59:48 51° SSW 19:03:04 10° SE visible
01 Oct -1.2 20:34:09 10° WSW 20:35:58 14° SW 20:36:09 14° SW visible
02 Oct -1.6 19:44:52 10° W 19:47:25 20° SW 19:49:30 12° S visible
03 Oct -2.0 18:55:52 10° W 18:58:49 28° SSW 19:01:45 10° SSE visible
